User: anonymous   Login
Location: Newark
(39.4242°N, 80.8531°W)
Time: 15:42:27
(UTC+00:00)
Language:

XW-2C - Orbit

View from above orbital plane
View from above orbital plane
View from above satellite
View from above satellite

Ground track
Ground track

The orbit data is extracted from the following two-line orbital elements,

1 40906U 15049H   20095.46646064  .00000892  00000-0  49863-4 0  9993
2 40906  97.4771  97.9116 0012973 271.3110 242.8845 15.15992442251043
Epoch (UTC): 04 April 2020 11:11:42
Eccentricity: 0.0012973
inclination: 97.4771°
perigee height: 509 km
apogee height: 527 km
right ascension of ascending node: 97.9116°
argument of perigee: 271.3110°
revolutions per day: 15.15992442
mean anomaly at epoch: 242.8845°
orbit number at epoch: 25104

The dashed part of the orbit path shows where the satellite is in the earth's shadow,  

DLR